Rochester, MN
on Tuesday, January 15, 2013

Tuesday
Previous Day Next Day
Daily Summary
 ActualAverageRecord
Temperature
Mean Temperature °F 15°F  
Max Temperature 30°F 23°F 50°F (1914)
Min Temperature 10°F 7°F -36°F (1888)
Degree Days
Heating Degree Days 45 50  
Month to date heating degree days 684 741  
Since 1 July heating degree days 3402 3819  
Cooling Degree Days 0 0  
Month to date cooling degree days 0 0  
Year to date cooling degree days 0 0  
Moisture
Dew Point 12°F   
Average Humidity 67    
Maximum Humidity 80    
Minimum Humidity 53    
Precipitation
Precipitation 0.00 in 0.02 in 0.77 in (1953)
Month to date precipitation 0.20 0.41  
Year to date precipitation 0.20 0.41  
Snow
Snow 0.00 in 0.40 in 2.60 in (1976)
Month to date snowfall 0.3 5.4  
Since 1 July snowfall 14.8 24.8  
Snow Depth 0.00 in   
Wind
Wind Speed 14 mph   
Max Wind Speed 23 mph   
Max Gust Speed 30 mph   
Visibility 10 miles   
Events     

Key: T is trace of precipitation, MM is missing value
Source: NWS Daily Summary
Time(CST)TemperatureDew PointHumidity Pressure Visibility Wind DirectionWind SpeedGust SpeedPrecipitationEvents Conditions
12:54 AM 10.9°F 5.0°F 77% 30.38 in 10.0 miles South 10.4 mph - N/A   Clear
1:54 AM 12.9°F 7.0°F 77% 30.36 in 10.0 miles South 10.4 mph - N/A   Clear
2:54 AM 12.9°F 7.0°F 77% 30.36 in 10.0 miles South 10.4 mph - N/A   Clear
3:54 AM 12.9°F 7.0°F 77% 30.34 in 10.0 miles South 10.4 mph - N/A   Clear
4:54 AM 12.9°F 7.0°F 77% 30.33 in 10.0 miles South 11.5 mph - N/A   Clear
5:54 AM 12.9°F 6.1°F 74% 30.33 in 10.0 miles South 10.4 mph - N/A   Clear
6:54 AM 12.9°F 7.0°F 77% 30.32 in 10.0 miles SSW 11.5 mph - N/A   Clear
7:54 AM 14.0°F 7.0°F 74% 30.32 in 10.0 miles SSW 11.5 mph - N/A   Clear
8:54 AM 18.0°F 10.9°F 74% 30.33 in 10.0 miles SSW 6.9 mph - N/A   Overcast
9:54 AM 21.0°F 12.9°F 71% 30.32 in 10.0 miles SSW 8.1 mph - N/A   Partly Cloudy
10:54 AM 25.0°F 14.0°F 63% 30.31 in 10.0 miles SSW 11.5 mph - N/A   Clear
11:54 AM 27.0°F 15.1°F 61% 30.27 in 10.0 miles SSW 15.0 mph - N/A   Clear
12:54 PM 28.9°F 16.0°F 58% 30.24 in 10.0 miles SSW 18.4 mph - N/A   Clear
1:54 PM 30.0°F 16.0°F 56% 30.21 in 10.0 miles SSW 19.6 mph 25.3 mph N/A   Clear
2:54 PM 30.0°F 16.0°F 56% 30.19 in 10.0 miles SSW 16.1 mph 25.3 mph N/A   Clear
3:54 PM 28.9°F 16.0°F 58% 30.18 in 10.0 miles SSW 18.4 mph - N/A   Partly Cloudy
4:54 PM 28.0°F 16.0°F 61% 30.16 in 10.0 miles South 15.0 mph - N/A   Clear
5:54 PM 25.0°F 15.1°F 66% 30.15 in 10.0 miles SSW 12.7 mph - N/A   Clear
6:54 PM 24.1°F 14.0°F 65% 30.14 in 10.0 miles SSW 13.8 mph - N/A   Clear
7:54 PM 23.0°F 14.0°F 68% 30.11 in 10.0 miles SSW 16.1 mph - N/A   Clear
8:54 PM 23.0°F 12.9°F 65% 30.08 in 10.0 miles SSW 15.0 mph - N/A   Clear
9:54 PM 23.0°F 12.9°F 65% 30.04 in 10.0 miles SSW 16.1 mph - N/A   Clear
10:54 PM 23.0°F 12.0°F 63% 29.99 in 10.0 miles SSW 24.2 mph 28.8 mph N/A   Clear
11:54 PM 23.0°F 12.2°F 63% 29.90 in 10.0 miles SSW 20.7 mph 27.6 mph N/A   Clear
Astronomy
Sunrise:07:41 AM (CST) Moon Rise:09:36 AM (CST)1/15
Sunset:04:58 PM (CST) Moon Set:10:00 PM (CST)1/15
Moon Phase
Jan. 15 Jan. 18 Jan. 27 Feb. 03 Feb. 10

Copyright © 2016 The Weather Underground, Inc.